Home   Weather   Kingstree   Past weeks
Flag for USA

Past Weather in Kingstree, South Carolina, USA — Yesterday and Last 2 Weeks

Now
54 °F

Low clouds.


Feels Like: 52 °F
Forecast: 61 / 48 °F
Wind: 6 mph from Northeast

Location: Manning / Cooper Regional

Current Time: Mar 31, 2020 at 9:59:53 pm

Latest Report: Mar 31, 2020 at 9:15 pm


Visibility: 10 mi

Pressure: 29.59 "Hg

Humidity: 100%

Dew Point: 54 °F

Location of KingstreeLocation

Past Weather in Kingstree — Graph

°F

Kingstree Temperature Yesterday

Maximum temperature yesterday: 77 °F (at 2:35 pm)
Minimum temperature yesterday: 59 °F (at 6:15 am)
Average temperature yesterday: 68 °F

High & Low Weather Summary for the Past Weeks

 TemperatureHumidityPressure
High86 °F (Mar 28, 2:55 pm)100% (Mar 17, 9:55 am)30.39 "Hg (Mar 17, 9:55 am)
Low46 °F (Mar 23, 7:55 am)30% (Mar 30, 2:35 pm)29.56 "Hg (Mar 31, 7:35 pm)
Average64 °F79%30.10 "Hg
* Reported Mar 16 9:15 pm — Mar 31 9:15 pm, Kingstree. Weather by CustomWeather, © 2020

Note: Actual official high and low records may vary slightly from our data, if they occured in-between our weather recording intervals... More about our weather records

Kingstree Weather History for the Previous 24 Hours

Scroll right to see more
 ConditionsComfort  
Time TempWeatherWind HumidityBarometerVisibility
9:15 pm
Tue, Mar 31
54 °FLow clouds.6 mph100%29.59 "Hg10 mi
8:55 pm54 °FLow clouds.12 mph100%29.61 "Hg10 mi
8:35 pm55 °FLow clouds.7 mph94%29.59 "Hg10 mi
8:15 pm55 °FLow clouds.5 mph100%29.57 "Hg10 mi
7:35 pm55 °FBroken clouds.5 mph100%29.56 "Hg10 mi
7:15 pm55 °FDrizzle. Broken clouds.No wind100%29.57 "Hg10 mi
6:55 pm55 °FLight rain. Scattered clouds.5 mph100%29.58 "Hg5 mi
6:35 pm55 °FRain. Broken clouds.7 mph100%29.58 "Hg4 mi
6:15 pm55 °FLight rain. Broken clouds.8 mph100%29.62 "Hg7 mi
5:55 pm57 °FRain. Cloudy.5 mph94%29.62 "Hg4 mi
5:35 pm57 °FHeavy rain. More clouds than sun.6 mph94%29.62 "Hg4 mi
5:15 pm57 °FHeavy rain. Cloudy.8 mph94%29.62 "Hg2 mi
4:55 pm59 °FHeavy rain. Overcast.8 mph88%29.64 "Hg2 mi
4:35 pm59 °FLight rain. Mostly cloudy.10 mph88%29.62 "Hg5 mi
4:15 pm61 °FRain. Broken clouds.6 mph83%29.61 "Hg7 mi
3:55 pm63 °FBroken clouds.8 mph73%29.62 "Hg10 mi
3:35 pm63 °FOvercast.7 mph73%29.63 "Hg10 mi
3:15 pm64 °FPartly sunny.6 mph68%29.65 "Hg10 mi
2:35 pm64 °FScattered clouds.7 mph60%29.69 "Hg10 mi
2:15 pm66 °FSunny.7 mph49%29.69 "Hg10 mi
1:55 pm68 °FSunny.7 mph40%29.71 "Hg10 mi
1:35 pm68 °FSunny.8 mph40%29.73 "Hg10 mi
1:15 pm64 °FSunny.3 mph46%29.76 "Hg10 mi
12:55 pm64 °FSunny.6 mph46%29.77 "Hg10 mi
12:35 pm64 °FScattered clouds.3 mph43%29.79 "Hg10 mi
12:15 pm64 °FPartly sunny.7 mph43%29.81 "Hg10 mi
11:55 am64 °FPartly sunny.9 mph43%29.82 "Hg10 mi
11:35 am64 °FPartly sunny.3 mph43%29.82 "Hg10 mi
11:15 am63 °FPartly sunny.5 mph45%29.83 "Hg10 mi
10:55 am63 °FPartly sunny.6 mph45%29.82 "Hg10 mi
10:35 am63 °FPartly sunny.5 mph42%29.83 "Hg10 mi
9:15 am61 °FScattered clouds.6 mph55%29.87 "Hg10 mi
8:55 am61 °FScattered clouds.6 mph55%29.88 "Hg10 mi
8:35 am59 °FSunny.5 mph63%29.87 "Hg10 mi
8:15 am57 °FSunny.6 mph72%29.89 "Hg10 mi
7:55 am54 °FSunny.3 mph94%29.90 "Hg10 mi
7:35 am54 °FSunny.No wind94%29.90 "Hg10 mi
7:15 am52 °FSunny.No wind100%29.89 "Hg10 mi
6:35 am54 °FClear.No wind94%29.90 "Hg10 mi
6:15 am54 °FClear.No wind94%29.87 "Hg10 mi
5:55 am54 °FClear.No wind94%29.87 "Hg10 mi
5:35 am54 °FClear.No wind94%29.86 "Hg10 mi
5:15 am54 °FClear.No wind94%29.86 "Hg10 mi
4:55 am54 °FClear.No wind94%29.87 "Hg10 mi
4:35 am54 °FClear.No wind94%29.88 "Hg10 mi
4:15 am55 °FClear.No wind88%29.89 "Hg10 mi
3:35 am55 °FClear.No wind88%29.89 "Hg10 mi
3:15 am55 °FClear.No wind88%29.89 "Hg10 mi
2:55 am55 °FClear.No wind88%29.90 "Hg10 mi
2:35 am55 °FClear.No wind88%29.90 "Hg10 mi
2:15 am55 °FClear.No wind88%29.90 "Hg10 mi
1:55 am55 °FClear.No wind88%29.92 "Hg10 mi
1:35 am55 °FClear.No wind88%29.92 "Hg10 mi
1:15 am55 °FClear.No wind88%29.92 "Hg10 mi
12:55 am57 °FClear.No wind82%29.94 "Hg10 mi
12:35 am57 °FClear.No wind82%29.95 "Hg10 mi
12:15 am59 °FClear.No wind77%29.95 "Hg10 mi
11:55 pm
Mon, Mar 30
59 °FClear.No wind77%29.95 "Hg10 mi
11:35 pm61 °FClear.No wind77%29.96 "Hg10 mi
11:15 pm61 °FClear.No wind83%29.96 "Hg10 mi
10:55 pm63 °FClear.No wind77%29.96 "Hg10 mi
10:35 pm63 °FClear.No wind77%29.97 "Hg10 mi
10:15 pm63 °FClear.No wind77%29.97 "Hg10 mi
9:55 pm63 °FClear.No wind77%29.96 "Hg10 mi
9:35 pm64 °FClear.No wind73%29.97 "Hg10 mi
9:15 pm64 °FClear.No wind73%29.97 "Hg10 mi
Weather by CustomWeather, © 2020

See weather overview

Advertising